| time (UTC) | temp F | wind direction | speed MPH | gust MPH | rain 1hr in | rain 24hr in | rain mn in | humidity % | barometer mb |
| 20260510033022 | 52 | 198 | 3.0 | 5.0 | 0.00 | 0.29 | 0.29 | 86 | 1009.2 |
| 20260510032019 | 52 | 203 | 3.0 | 4.0 | 0.00 | 0.29 | 0.29 | 86 | 1009.1 |
| 20260510031036 | 52 | 205 | 4.0 | 7.0 | 0.00 | 0.29 | 0.29 | 86 | 1008.9 |
| 20260510030033 | 52 | 192 | 3.0 | 9.0 | 0.00 | 0.29 | 0.29 | 86 | 1008.8 |
| 20260510025030 | 52 | 205 | 4.0 | 7.0 | 0.00 | 0.29 | 0.29 | 85 | 1008.8 |
| 20260510024027 | 52 | 203 | 3.0 | 6.0 | 0.00 | 0.29 | 0.29 | 86 | 1008.9 |
| 20260510023024 | 52 | 189 | 1.0 | 4.0 | 0.00 | 0.29 | 0.29 | 85 | 1008.7 |
| 20260510022021 | 51 | 198 | 3.0 | 6.0 | 0.00 | 0.29 | 0.29 | 87 | 1008.5 |
| 20260510021018 | 52 | 161 | 1.0 | 3.0 | 0.00 | 0.29 | 0.29 | 85 | 1008.6 |
| 20260510020034 | 52 | 179 | 2.0 | 4.0 | 0.00 | 0.29 | 0.29 | 84 | 1008.8 |
| 20260510015051 | 52 | 196 | 2.0 | 4.0 | 0.00 | 0.29 | 0.29 | 85 | 1008.7 |
| 20260510014028 | 52 | 202 | 2.0 | 5.0 | 0.00 | 0.29 | 0.29 | 85 | 1008.6 |
| 20260510013025 | 52 | 193 | 2.0 | 5.0 | 0.00 | 0.29 | 0.29 | 85 | 1008.5 |
| 20260510012022 | 53 | 185 | 2.0 | 7.0 | 0.00 | 0.29 | 0.29 | 83 | 1008.5 |
| 20260510011019 | 53 | 188 | 3.0 | 8.0 | 0.00 | 0.29 | 0.29 | 84 | 1008.4 |
| 20260510010016 | 53 | 137 | 1.0 | 2.0 | 0.00 | 0.29 | 0.29 | 84 | 1008.4 |
| 20260510005033 | 53 | 189 | 2.0 | 4.0 | 0.00 | 0.29 | 0.29 | 83 | 1008.2 |
| 20260510004050 | 53 | 178 | 2.0 | 5.0 | 0.00 | 0.29 | 0.29 | 84 | 1008.2 |
| 20260510003027 | 54 | 166 | 1.0 | 2.0 | 0.00 | 0.29 | 0.29 | 83 | 1008.4 |
| 20260510002024 | 54 | 192 | 2.0 | 5.0 | 0.00 | 0.29 | 0.29 | 82 | 1008.1 |
| 20260510001021 | 54 | 210 | 4.0 | 7.0 | 0.00 | 0.29 | 0.29 | 82 | 1008.2 |
| 20260510000017 | 54 | 206 | 3.0 | 5.0 | 0.00 | 0.29 | 0.29 | 83 | 1008.0 |
| 20260509235034 | 54 | 188 | 1.0 | 3.0 | 0.00 | 0.29 | 0.29 | 84 | 1007.6 |
| 20260509234031 | 54 | 147 | 1.0 | 2.0 | 0.00 | 0.29 | 0.29 | 84 | 1007.7 |
| 20260509233028 | 54 | 175 | 2.0 | 4.0 | 0.00 | 0.29 | 0.29 | 84 | 1007.7 |
| 20260509232105 | 54 | 192 | 2.0 | 4.0 | 0.00 | 0.29 | 0.29 | 83 | 1007.8 |
| 20260509231021 | 54 | 208 | 3.0 | 4.0 | 0.00 | 0.29 | 0.29 | 82 | 1007.7 |
| 20260509230018 | 54 | 209 | 4.0 | 7.0 | 0.00 | 0.29 | 0.29 | 82 | 1007.5 |
| 20260509225034 | 54 | 216 | 4.0 | 6.0 | 0.00 | 0.29 | 0.29 | 82 | 1007.6 |
| 20260509224032 | 54 | 212 | 4.0 | 6.0 | 0.00 | 0.29 | 0.29 | 81 | 1007.6 |
| 20260509223029 | 54 | 210 | 4.0 | 8.0 | 0.00 | 0.29 | 0.29 | 81 | 1007.5 |
| 20260509222026 | 54 | 211 | 4.0 | 8.0 | 0.00 | 0.29 | 0.29 | 81 | 1007.4 |
| 20260509221023 | 54 | 202 | 3.0 | 8.0 | 0.00 | 0.29 | 0.29 | 82 | 1007.5 |
| 20260509220020 | 54 | 213 | 4.0 | 8.0 | 0.00 | 0.29 | 0.29 | 83 | 1007.6 |
| 20260509215016 | 53 | 210 | 4.0 | 7.0 | 0.00 | 0.29 | 0.29 | 83 | 1007.6 |
| 20260509214034 | 53 | 206 | 5.0 | 12.0 | 0.00 | 0.29 | 0.29 | 84 | 1007.9 |
| 20260509213031 | 53 | 211 | 6.0 | 10.0 | 0.00 | 0.29 | 0.29 | 84 | 1008.0 |
| 20260509212027 | 53 | 210 | 6.0 | 12.0 | 0.29 | 0.29 | 0.29 | 84 | 1007.9 |
| 20260509211023 | 53 | 207 | 5.0 | 9.0 | 0.29 | 0.29 | 0.29 | 84 | 1008.0 |
| 20260509210020 | 53 | 216 | 5.0 | 9.0 | 0.29 | 0.29 | 0.29 | 84 | 1008.1 |
| 20260509205016 | 53 | 211 | 6.0 | 11.0 | 0.29 | 0.29 | 0.29 | 84 | 1008.2 |
| 20260509204053 | 53 | 213 | 6.0 | 12.0 | 0.29 | 0.29 | 0.29 | 85 | 1008.2 |
| 20260509203050 | 53 | 219 | 5.0 | 11.0 | 0.29 | 0.34 | 0.29 | 84 | 1008.3 |
| 20260509202027 | 53 | 210 | 7.0 | 14.0 | 0.00 | 0.05 | 0.00 | 85 | 1008.3 |
| 20260509201025 | 52 | 204 | 6.0 | 12.0 | 0.00 | 0.05 | 0.00 | 86 | 1008.3 |
| 20260509200021 | 52 | 203 | 4.0 | 9.0 | 0.00 | 0.05 | 0.00 | 87 | 1008.5 |
| 20260509195019 | 52 | 193 | 3.0 | 10.0 | 0.00 | 0.05 | 0.00 | 87 | 1008.6 |
| 20260509194016 | 52 | 208 | 3.0 | 8.0 | 0.00 | 0.05 | 0.00 | 87 | 1008.7 |
| 20260509193053 | 52 | 205 | 3.0 | 9.0 | 0.00 | 0.05 | 0.00 | 87 | 1008.9 |
| 20260509192049 | 52 | 206 | 3.0 | 8.0 | 0.00 | 0.05 | 0.00 | 88 | 1008.8 |
| 20260509191028 | 51 | 178 | 1.0 | 4.0 | 0.00 | 0.05 | 0.00 | 88 | 1008.9 |
| 20260509190023 | 51 | 192 | 2.0 | 4.0 | 0.00 | 0.05 | 0.00 | 88 | 1009.0 |
| 20260509185041 | 51 | 203 | 2.0 | 4.0 | 0.00 | 0.05 | 0.00 | 88 | 1009.0 |
| 20260509184018 | 51 | 216 | 1.0 | 3.0 | 0.00 | 0.05 | 0.00 | 89 | 1009.0 |
| 20260509183015 | 51 | 198 | 2.0 | 4.0 | 0.00 | 0.05 | 0.00 | 89 | 1009.0 |
| 20260509182052 | 51 | 190 | 2.0 | 4.0 | 0.00 | 0.05 | 0.00 | 89 | 1009.0 |
| 20260509181029 | 52 | 207 | 3.0 | 6.0 | 0.00 | 0.05 | 0.00 | 88 | 1008.9 |
| 20260509180027 | 52 | 151 | 2.0 | 4.0 | 0.00 | 0.05 | 0.00 | 89 | 1008.8 |
| 20260509175023 | 52 | 191 | 3.0 | 4.0 | 0.00 | 0.05 | 0.00 | 89 | 1008.8 |
| 20260509174021 | 52 | 201 | 3.0 | 5.0 | 0.00 | 0.05 | 0.00 | 89 | 1008.9 |
| 20260509173019 | 51 | 194 | 3.0 | 6.0 | 0.00 | 0.05 | 0.00 | 89 | 1008.8 |
| 20260509172034 | 51 | 172 | 1.0 | 4.0 | 0.00 | 0.05 | 0.00 | 90 | 1009.0 |
| 20260509171031 | 51 | 175 | 2.0 | 5.0 | 0.00 | 0.05 | 0.00 | 90 | 1009.1 |
| 20260509170028 | 51 | 175 | 2.0 | 3.0 | 0.00 | 0.05 | 0.00 | 90 | 1009.0 |
| 20260509165046 | 51 | 192 | 2.0 | 3.0 | 0.00 | 0.05 | 0.00 | 91 | 1009.1 |
| 20260509164022 | 51 | 177 | 2.0 | 4.0 | 0.00 | 0.05 | 0.00 | 91 | 1009.2 |
| 20260509163020 | 50 | 245 | 1.0 | 3.0 | 0.00 | 0.05 | 0.00 | 93 | 1009.4 |
| 20260509162016 | 50 | 167 | 1.0 | 4.0 | 0.00 | 0.05 | 0.00 | 94 | 1009.6 |
| 20260509161033 | 49 | 178 | 1.0 | 3.0 | 0.00 | 0.05 | 0.00 | 95 | 1009.7 |
| 20260509160030 | 49 | 195 | 2.0 | 6.0 | 0.00 | 0.05 | 0.00 | 96 | 1009.8 |
| 20260509155026 | 48 | 120 | 1.0 | 3.0 | 0.00 | 0.05 | 0.00 | 97 | 1010.0 |
| 20260509154023 | 48 | 336 | 1.0 | 2.0 | 0.00 | 0.05 | 0.00 | 97 | 1010.3 |
| 20260509153019 | 48 | 150 | 2.0 | 5.0 | 0.00 | 0.05 | 0.00 | 98 | 1010.3 |
| 20260509152016 | 47 | 137 | 1.0 | 4.0 | 0.00 | 0.05 | 0.00 | 97 | 1010.3 |
| 20260509151033 | 46 | 28 | 1.0 | 3.0 | 0.00 | 0.05 | 0.00 | 98 | 1010.3 |
| 20260509150031 | 46 | 0 | 1.0 | 3.0 | 0.00 | 0.05 | 0.00 | 97 | 1010.4 |
| 20260509145027 | 46 | 350 | 1.0 | 4.0 | 0.00 | 0.05 | 0.00 | 97 | 1010.4 |
| 20260509144024 | 45 | 311 | 1.0 | 3.0 | 0.00 | 0.05 | 0.00 | 97 | 1010.5 |
| 20260509143021 | 44 | 346 | 1.0 | 4.0 | 0.00 | 0.05 | 0.00 | 97 | 1010.6 |
| 20260509142038 | 44 | 338 | 1.0 | 4.0 | 0.00 | 0.05 | 0.00 | 97 | 1010.6 |
| 20260509141034 | 44 | 360 | 1.0 | 3.0 | 0.00 | 0.05 | 0.00 | 96 | 1010.6 |
| 20260509140032 | 43 | 151 | 1.0 | 4.0 | 0.00 | 0.05 | 0.00 | 96 | 1010.6 |
| 20260509135028 | 43 | 148 | 2.0 | 5.0 | 0.00 | 0.05 | 0.00 | 96 | 1010.6 |
| 20260509134025 | 42 | 123 | 1.0 | 3.0 | 0.00 | 0.05 | 0.00 | 96 | 1010.7 |
| 20260509133021 | 42 | 91 | 1.0 | 2.0 | 0.00 | 0.05 | 0.00 | 97 | 1010.8 |
| 20260509132120 | 41 | 158 | 1.0 | 2.0 | 0.00 | 0.06 | 0.00 | 97 | 1010.7 |
| 20260509131016 | 41 | 18 | 1.0 | 2.0 | 0.00 | 0.06 | 0.00 | 97 | 1010.8 |
| 20260509130033 | 40 | 46 | 1.0 | 2.0 | 0.00 | 0.06 | 0.00 | 97 | 1010.9 |
| 20260509125030 | 39 | 11 | 0.0 | 2.0 | 0.00 | 0.06 | 0.00 | 97 | 1010.8 |
| 20260509124027 | 39 | 336 | 0.0 | 3.0 | 0.00 | 0.06 | 0.00 | 96 | 1010.9 |
| 20260509123024 | 39 | 85 | 1.0 | 2.0 | 0.00 | 0.06 | 0.00 | 96 | 1010.9 |
| 20260509122021 | 39 | 114 | 1.0 | 2.0 | 0.00 | 0.06 | 0.00 | 96 | 1011.1 |
| 20260509121018 | 39 | 308 | 1.0 | 2.0 | 0.00 | 0.06 | 0.00 | 96 | 1011.2 |
| 20260509120035 | 39 | 104 | 1.0 | 3.0 | 0.00 | 0.06 | 0.00 | 96 | 1011.2 |
| 20260509115031 | 38 | 67 | 1.0 | 3.0 | 0.00 | 0.06 | 0.00 | 96 | 1011.1 |
| 20260509114028 | 39 | 330 | 1.0 | 2.0 | 0.00 | 0.06 | 0.00 | 96 | 1011.1 |
| 20260509113025 | 39 | 336 | 1.0 | 3.0 | 0.00 | 0.06 | 0.00 | 96 | 1011.2 |
| 20260509112045 | 39 | 36 | 1.0 | 2.0 | 0.00 | 0.06 | 0.00 | 95 | 1011.3 |
| 20260509111020 | 38 | 151 | 1.0 | 3.0 | 0.00 | 0.06 | 0.00 | 95 | 1011.3 |
| 20260509110016 | 38 | 132 | 1.0 | 2.0 | 0.00 | 0.06 | 0.00 | 95 | 1011.2 |
| 20260509105033 | 38 | 157 | 1.0 | 2.0 | 0.00 | 0.06 | 0.00 | 95 | 1011.2 |
| 20260509104110 | 38 | 152 | 1.0 | 2.0 | 0.00 | 0.06 | 0.00 | 94 | 1011.1 |
| 20260509103027 | 37 | 281 | 1.0 | 2.0 | 0.00 | 0.06 | 0.00 | 95 | 1010.8 |
| 20260509102024 | 38 | 198 | 1.0 | 2.0 | 0.00 | 0.06 | 0.00 | 95 | 1010.9 |
| 20260509101021 | 37 | 100 | 0.0 | 2.0 | 0.00 | 0.06 | 0.00 | 98 | 1010.9 |
| 20260509100017 | 37 | 355 | 1.0 | 4.0 | 0.00 | 0.06 | 0.00 | 94 | 1011.0 |
| 20260509095034 | 37 | 19 | 1.0 | 3.0 | 0.00 | 0.06 | 0.00 | 97 | 1011.1 |
| 20260509094031 | 37 | 2 | 1.0 | 3.0 | 0.00 | 0.06 | 0.00 | 95 | 1011.1 |
| 20260509093027 | 37 | 313 | 1.0 | 2.0 | 0.00 | 0.06 | 0.00 | 94 | 1011.3 |
| 20260509092105 | 37 | 66 | 1.0 | 2.0 | 0.00 | 0.06 | 0.00 | 94 | 1011.1 |
| 20260509091021 | 38 | 315 | 1.0 | 3.0 | 0.00 | 0.06 | 0.00 | 93 | 1011.4 |
| 20260509090039 | 38 | 165 | 1.0 | 3.0 | 0.00 | 0.06 | 0.00 | 92 | 1011.5 |
| 20260509085035 | 38 | 50 | 1.0 | 4.0 | 0.00 | 0.06 | 0.00 | 91 | 1011.5 |
| 20260509084052 | 38 | 167 | 2.0 | 5.0 | 0.00 | 0.06 | 0.00 | 89 | 1011.5 |
| 20260509083028 | 39 | 179 | 2.0 | 4.0 | 0.00 | 0.06 | 0.00 | 89 | 1011.5 |
| 20260509082046 | 39 | 153 | 1.0 | 3.0 | 0.00 | 0.06 | 0.00 | 88 | 1011.5 |
| 20260509081022 | 39 | 166 | 2.0 | 4.0 | 0.00 | 0.06 | 0.00 | 88 | 1011.5 |
| 20260509080019 | 39 | 158 | 2.0 | 4.0 | 0.00 | 0.06 | 0.00 | 89 | 1011.6 |
| 20260509075036 | 38 | 181 | 1.0 | 3.0 | 0.00 | 0.06 | 0.00 | 92 | 1011.6 |
| 20260509074032 | 37 | 30 | 1.0 | 4.0 | 0.00 | 0.06 | 0.00 | 96 | 1011.5 |
| 20260509073030 | 36 | 63 | 0.0 | 2.0 | 0.00 | 0.06 | 0.00 | 91 | 1011.6 |
| 20260509072047 | 36 | 51 | 1.0 | 2.0 | 0.00 | 0.06 | 0.00 | 90 | 1011.5 |
| 20260509071024 | 36 | 0.0 | 0.0 | 0.00 | 0.06 | 0.00 | 91 | 1011.7 | |
| 20260509070021 | 36 | 0.0 | 0.0 | 0.00 | 0.06 | 0.00 | 91 | 1011.6 | |
| 20260509065038 | 35 | 0.0 | 1.0 | 0.00 | 0.06 | 0.00 | 92 | 1011.8 | |
| 20260509064034 | 35 | 328 | 0.0 | 1.0 | 0.00 | 0.06 | 0.00 | 94 | 1011.8 |
| 20260509063032 | 35 | 313 | 0.0 | 2.0 | 0.00 | 0.06 | 0.00 | 94 | 1012.0 |
| 20260509062048 | 35 | 333 | 0.0 | 2.0 | 0.00 | 0.06 | 0.00 | 91 | 1012.0 |
| 20260509061025 | 35 | 0.0 | 1.0 | 0.00 | 0.06 | 0.00 | 92 | 1012.1 | |
| 20260509060042 | 35 | 0.0 | 1.0 | 0.00 | 0.06 | 0.00 | 92 | 1012.1 | |
| 20260509055018 | 35 | 0.0 | 0.0 | 0.00 | 0.06 | 0.00 | 94 | 1012.3 | |
| 20260509054033 | 35 | 46 | 0.0 | 1.0 | 0.00 | 0.06 | 0.00 | 96 | 1012.3 |
| 20260509053029 | 35 | 175 | 0.0 | 2.0 | 0.00 | 0.06 | 0.00 | 92 | 1012.4 |
| 20260509052027 | 35 | 324 | 0.0 | 2.0 | 0.00 | 0.06 | 0.00 | 91 | 1012.4 |
| 20260509051044 | 35 | 0.0 | 2.0 | 0.00 | 0.06 | 0.00 | 92 | 1012.5 | |
| 20260509050022 | 35 | 331 | 0.0 | 2.0 | 0.00 | 0.06 | 0.00 | 95 | 1012.5 |
| 20260509045019 | 36 | 0.0 | 1.0 | 0.00 | 0.06 | 0.00 | 91 | 1012.5 | |
| 20260509044016 | 36 | 0.0 | 0.0 | 0.00 | 0.06 | 0.00 | 89 | 1012.7 | |
| 20260509043033 | 36 | 0.0 | 0.0 | 0.00 | 0.06 | 0.00 | 88 | 1012.5 | |
| 20260509042030 | 36 | 0.0 | 0.0 | 0.00 | 0.06 | 0.00 | 89 | 1012.5 | |
| 20260509041107 | 37 | 345 | 0.0 | 1.0 | 0.00 | 0.06 | 0.00 | 89 | 1012.5 |
| 20260509040025 | 37 | 134 | 0.0 | 2.0 | 0.00 | 0.06 | 0.00 | 87 | 1012.5 |
| 20260509035042 | 38 | 141 | 0.0 | 2.0 | 0.00 | 0.06 | 0.06 | 83 | 1012.5 |
| 20260509034019 | 38 | 283 | 0.0 | 2.0 | 0.00 | 0.06 | 0.06 | 81 | 1012.5 |